TFL940 LIRZ-LTAI

Flight info

Callsign TFL940
Flight time 2h 21m
Altitude 39000
Route KATAR DCT NAVAG DCT VIE DCT PERAV DCT PAPIZ DCT PINDO UP14 RIKSO UN127 IMR UN135 NESIL
Aircraft B38M/M-SDE1FGHILORVWXY/HB1

Departure

Time 2026-05-04 09:01
Airport Perugia San Francesco d'Assisi – Umbria International Airport (LIRZ)

Arrival

Time 2026-05-04 11:22
Airport Antalya International Airport (LTAI)
Time Latitude Longitude Altitude Speed Heading
2026-05-04 08:37 43.09514 12.50386 670 ft 0 kts 249°
2026-05-04 08:54 43.09515 12.50380 671 ft 1 kts 281°
2026-05-04 08:55 43.09527 12.50364 671 ft 2 kts 353°
2026-05-04 08:55 43.09535 12.50373 669 ft 1 kts 64°
2026-05-04 08:55 43.09533 12.50400 670 ft 7 kts 96°
2026-05-04 08:55 43.09555 12.50505 671 ft 16 kts 65°
2026-05-04 08:57 43.10201 12.51304 672 ft 23 kts 14°
2026-05-04 09:01 43.02371 12.47778 4695 ft 223 kts 209°
2026-05-04 09:01 43.01013 12.46753 5791 ft 225 kts 209°
2026-05-04 09:01 42.99642 12.45718 6734 ft 229 kts 209°
2026-05-04 09:01 42.98224 12.44647 7712 ft 232 kts 209°
2026-05-04 09:02 42.96794 12.43567 8634 ft 236 kts 209°
2026-05-04 09:02 42.95350 12.42478 9541 ft 240 kts 209°
2026-05-04 09:02 42.93877 12.41366 10405 ft 244 kts 209°
2026-05-04 09:02 42.92384 12.40241 11293 ft 246 kts 209°
2026-05-04 09:03 42.90878 12.39106 12129 ft 249 kts 209°
2026-05-04 09:03 42.89276 12.38190 12928 ft 252 kts 190°
2026-05-04 09:03 42.87536 12.38295 13707 ft 254 kts 161°
2026-05-04 09:03 42.86009 12.39519 14406 ft 259 kts 135°
2026-05-04 09:04 42.85028 12.41561 15116 ft 262 kts 109°
2026-05-04 09:04 42.84816 12.44030 15791 ft 266 kts 82°
2026-05-04 09:04 42.85177 12.46517 16469 ft 269 kts 81°
2026-05-04 09:04 42.85564 12.49043 16986 ft 280 kts 69°
2026-05-04 09:05 42.86646 12.51294 17393 ft 291 kts 43°
2026-05-04 09:05 42.88320 12.52928 17868 ft 301 kts 33°
2026-05-04 09:05 42.90080 12.54508 18492 ft 304 kts 33°
2026-05-04 09:05 42.91860 12.56095 19142 ft 307 kts 33°
2026-05-04 09:06 42.93676 12.57699 19583 ft 318 kts 32°
2026-05-04 09:07 43.01885 12.77158 21215 ft 413 kts 110°
2026-05-04 09:08 43.00814 12.80823 21680 ft 417 kts 112°
2026-05-04 09:08 42.99680 12.84503 22176 ft 420 kts 113°
2026-05-04 09:08 42.98516 12.88183 22676 ft 424 kts 113°
2026-05-04 09:08 42.97324 12.91885 23147 ft 428 kts 114°
2026-05-04 09:09 42.96109 12.95620 23623 ft 431 kts 114°
2026-05-04 09:09 42.94882 12.99375 24084 ft 435 kts 114°
2026-05-04 09:09 42.93645 13.03151 24542 ft 438 kts 114°
2026-05-04 09:09 42.92396 13.06958 24992 ft 442 kts 114°
2026-05-04 09:10 42.91137 13.10789 25455 ft 444 kts 114°
2026-05-04 09:10 42.89867 13.14651 25877 ft 447 kts 114°
2026-05-04 09:10 42.88590 13.18527 26335 ft 450 kts 114°
2026-05-04 09:10 42.87301 13.22434 26726 ft 453 kts 114°
2026-05-04 09:11 42.86001 13.26370 27131 ft 456 kts 114°
2026-05-04 09:11 42.84692 13.30324 27500 ft 460 kts 114°
2026-05-04 09:11 42.83373 13.34304 27877 ft 462 kts 114°
2026-05-04 09:11 42.82046 13.38303 28230 ft 465 kts 114°
2026-05-04 09:12 42.80708 13.42328 28586 ft 468 kts 114°
2026-05-04 09:12 42.79359 13.46380 28919 ft 471 kts 115°
2026-05-04 09:14 42.69708 13.75194 31541 ft 479 kts 115°
2026-05-04 09:14 42.68322 13.79308 31982 ft 478 kts 115°
2026-05-04 09:14 42.66940 13.83403 32422 ft 477 kts 115°
2026-05-04 09:14 42.65559 13.87490 32855 ft 475 kts 115°
2026-05-04 09:15 42.64179 13.91568 33274 ft 474 kts 115°
2026-05-04 09:15 42.62803 13.95626 33693 ft 472 kts 115°
2026-05-04 09:15 42.61429 13.99677 34096 ft 471 kts 115°
2026-05-04 09:15 42.60058 14.03712 34499 ft 470 kts 115°
2026-05-04 09:17 42.49349 14.35915 37073 ft 464 kts 114°
2026-05-04 09:18 42.48025 14.39885 37420 ft 461 kts 114°
2026-05-04 09:18 42.46705 14.43837 37720 ft 460 kts 114°
2026-05-04 09:18 42.45387 14.47779 37978 ft 459 kts 114°
2026-05-04 09:18 42.44070 14.51713 38215 ft 458 kts 114°
2026-05-04 09:19 42.42753 14.55641 38438 ft 458 kts 114°
2026-05-04 09:19 42.41435 14.59566 38637 ft 458 kts 114°
2026-05-04 09:19 42.40118 14.63483 38834 ft 458 kts 114°
2026-05-04 09:19 42.38799 14.67398 39014 ft 457 kts 114°
2026-05-04 09:20 42.37479 14.71312 39151 ft 458 kts 114°
2026-05-04 09:20 42.36155 14.75232 39165 ft 459 kts 114°
2026-05-04 09:20 42.33507 14.83054 39170 ft 457 kts 114°
2026-05-04 09:21 42.30851 14.90879 39164 ft 458 kts 114°
2026-05-04 09:21 42.28190 14.98696 39166 ft 458 kts 114°
2026-05-04 09:22 42.25524 15.06507 39166 ft 459 kts 114°
2026-05-04 09:22 42.22846 15.14330 39165 ft 460 kts 114°
2026-05-04 09:23 42.20160 15.22152 39164 ft 460 kts 114°
2026-05-04 09:23 42.17464 15.29983 39164 ft 460 kts 114°
2026-05-04 09:25 42.06624 15.61246 39158 ft 462 kts 114°
2026-05-04 09:26 42.03893 15.69069 39155 ft 462 kts 114°
2026-05-04 09:26 42.01138 15.76937 39159 ft 462 kts 114°
2026-05-04 09:27 41.98393 15.84752 39155 ft 462 kts 115°
2026-05-04 09:27 41.95663 15.92514 39156 ft 462 kts 115°
2026-05-04 09:28 41.92914 16.00305 39157 ft 462 kts 115°
2026-05-04 09:28 41.89893 16.07926 39165 ft 462 kts 120°
2026-05-04 09:29 41.86658 16.15387 39150 ft 463 kts 119°
2026-05-04 09:29 41.83970 16.21657 39153 ft 463 kts 119°
2026-05-04 09:30 41.80763 16.29139 39153 ft 463 kts 119°
2026-05-04 09:30 41.77544 16.36627 39155 ft 463 kts 119°
2026-05-04 09:31 41.74345 16.44054 39158 ft 464 kts 119°
2026-05-04 09:31 41.71115 16.51532 39159 ft 464 kts 119°
2026-05-04 09:32 41.67879 16.59008 39156 ft 464 kts 119°
2026-05-04 09:34 41.54880 16.88843 39156 ft 465 kts 119°
2026-05-04 09:34 41.51944 16.96504 39162 ft 462 kts 111°
2026-05-04 09:35 41.49497 17.04462 39151 ft 464 kts 111°
2026-05-04 09:35 41.47058 17.12432 39157 ft 464 kts 111°
2026-05-04 09:37 41.37259 17.44247 39156 ft 464 kts 111°
2026-05-04 09:38 41.34795 17.52187 39154 ft 465 kts 111°
2026-05-04 09:38 41.32339 17.60079 39158 ft 464 kts 111°
2026-05-04 09:39 41.29864 17.68010 39155 ft 464 kts 111°
2026-05-04 09:39 41.27380 17.75943 39153 ft 464 kts 111°
2026-05-04 09:40 41.24893 17.83864 39155 ft 464 kts 111°
2026-05-04 09:40 41.22401 17.91777 39155 ft 464 kts 111°
2026-05-04 09:42 41.12363 18.23421 39157 ft 466 kts 111°
2026-05-04 09:43 41.09839 18.31322 39157 ft 466 kts 111°
2026-05-04 09:43 41.07305 18.39228 39164 ft 466 kts 111°
2026-05-04 09:44 41.04766 18.47125 39165 ft 466 kts 111°
2026-05-04 09:46 40.94562 18.78650 39157 ft 467 kts 111°
2026-05-04 09:46 40.91994 18.86532 39155 ft 467 kts 111°
2026-05-04 09:47 40.89428 18.94429 39153 ft 467 kts 109°
2026-05-04 09:49 40.82819 19.27442 39155 ft 465 kts 102°
2026-05-04 09:51 40.77041 19.56375 39156 ft 466 kts 103°
2026-05-04 09:51 40.75377 19.64631 39154 ft 466 kts 103°
2026-05-04 09:52 40.73705 19.72893 39156 ft 466 kts 103°
2026-05-04 09:52 40.72025 19.81159 39156 ft 467 kts 103°
2026-05-04 09:53 40.70339 19.89426 39161 ft 467 kts 103°
2026-05-04 09:53 40.68647 19.97686 39167 ft 467 kts 103°
2026-05-04 09:54 40.66961 20.05886 39162 ft 467 kts 103°
2026-05-04 09:54 40.65258 20.14139 39176 ft 467 kts 103°
2026-05-04 09:55 40.63537 20.22444 39170 ft 467 kts 103°
2026-05-04 09:55 40.61833 20.30638 39172 ft 467 kts 103°
2026-05-04 09:56 40.60110 20.38881 39173 ft 467 kts 103°
2026-05-04 09:56 40.58384 20.47112 39174 ft 467 kts 103°
2026-05-04 09:57 40.56653 20.55338 39178 ft 467 kts 103°
2026-05-04 09:57 40.54915 20.63560 39176 ft 466 kts 103°
2026-05-04 09:58 40.53173 20.71768 39175 ft 466 kts 103°
2026-05-04 09:58 40.51427 20.79975 39173 ft 466 kts 104°
2026-05-04 10:00 40.43417 21.12324 39193 ft 466 kts 108°
2026-05-04 10:04 40.28023 21.68278 39180 ft 466 kts 108°
2026-05-04 10:04 40.25806 21.76238 39181 ft 466 kts 109°
2026-05-04 10:05 40.23581 21.84201 39183 ft 466 kts 109°
2026-05-04 10:05 40.21351 21.92156 39179 ft 466 kts 109°
2026-05-04 10:06 40.19113 22.00115 39181 ft 466 kts 109°
2026-05-04 10:06 40.16885 22.08016 39181 ft 466 kts 109°
2026-05-04 10:08 40.08991 22.35810 39180 ft 465 kts 109°
2026-05-04 10:08 40.06728 22.43725 39196 ft 466 kts 109°
2026-05-04 10:09 40.04457 22.51642 39180 ft 465 kts 109°
2026-05-04 10:09 40.02182 22.59548 39172 ft 465 kts 109°
2026-05-04 10:10 39.99902 22.67450 39174 ft 465 kts 109°
2026-05-04 10:10 39.97614 22.75355 39176 ft 467 kts 109°
2026-05-04 10:11 39.95313 22.83282 39174 ft 468 kts 109°
2026-05-04 10:11 39.93005 22.91206 39165 ft 468 kts 109°
2026-05-04 10:12 39.90687 22.99142 39166 ft 468 kts 109°
2026-05-04 10:12 39.88381 23.07012 39163 ft 468 kts 109°
2026-05-04 10:13 39.86055 23.14928 39166 ft 469 kts 110°
2026-05-04 10:13 39.83724 23.22839 39165 ft 468 kts 110°
2026-05-04 10:14 39.81766 23.29465 39166 ft 468 kts 110°
2026-05-04 10:16 39.72375 23.61016 39158 ft 467 kts 110°
2026-05-04 10:16 39.70017 23.68879 39158 ft 467 kts 110°
2026-05-04 10:17 39.67652 23.76745 39157 ft 467 kts 110°
2026-05-04 10:19 39.58145 24.08125 39151 ft 467 kts 110°
2026-05-04 10:19 39.55767 24.15923 39147 ft 467 kts 110°
2026-05-04 10:20 39.53371 24.23751 39145 ft 467 kts 110°
2026-05-04 10:20 39.50967 24.31584 39147 ft 468 kts 110°
2026-05-04 10:21 39.48561 24.39402 39145 ft 467 kts 110°
2026-05-04 10:21 39.46144 24.47232 39143 ft 468 kts 110°
2026-05-04 10:22 39.42506 24.58975 39142 ft 468 kts 111°
2026-05-04 10:23 39.40078 24.66785 39140 ft 468 kts 111°
2026-05-04 10:25 39.30315 24.97969 39128 ft 469 kts 111°
2026-05-04 10:25 39.27855 25.05772 39132 ft 469 kts 111°
2026-05-04 10:26 39.25396 25.13549 39124 ft 469 kts 111°
2026-05-04 10:26 39.22927 25.21335 39128 ft 469 kts 111°
2026-05-04 10:27 39.20455 25.29111 39129 ft 469 kts 111°
2026-05-04 10:27 39.17979 25.36876 39126 ft 468 kts 111°
2026-05-04 10:28 39.15496 25.44640 39126 ft 468 kts 111°
2026-05-04 10:28 39.13010 25.52395 39120 ft 468 kts 111°
2026-05-04 10:29 39.10518 25.60142 39120 ft 469 kts 111°
2026-05-04 10:29 39.08038 25.67836 39120 ft 468 kts 111°
2026-05-04 10:30 39.05534 25.75581 39119 ft 469 kts 111°
2026-05-04 10:30 39.03026 25.83318 39113 ft 469 kts 111°
2026-05-04 10:31 39.00512 25.91055 39110 ft 469 kts 112°
2026-05-04 10:32 38.91675 26.18100 39104 ft 469 kts 112°
2026-05-04 10:33 38.89137 26.25819 39101 ft 469 kts 112°
2026-05-04 10:33 38.86597 26.33528 39101 ft 469 kts 112°
2026-05-04 10:34 38.83967 26.41194 39088 ft 470 kts 120°
2026-05-04 10:34 38.80220 26.48048 39092 ft 471 kts 129°
2026-05-04 10:35 38.75549 26.53791 39055 ft 469 kts 149°
2026-05-04 10:35 38.70082 26.58278 39069 ft 467 kts 137°
2026-05-04 10:36 38.65138 26.63741 39058 ft 470 kts 139°
2026-05-04 10:36 38.60188 26.69229 39082 ft 472 kts 139°
2026-05-04 10:37 38.55245 26.74725 39081 ft 471 kts 139°
2026-05-04 10:37 38.50301 26.80214 39086 ft 471 kts 139°
2026-05-04 10:39 38.33039 26.99472 39042 ft 470 kts 130°
2026-05-04 10:39 38.31213 27.02897 39052 ft 467 kts 115°
2026-05-04 10:40 38.29833 27.06653 39039 ft 470 kts 114°
2026-05-04 10:40 38.27136 27.14242 39051 ft 470 kts 113°
2026-05-04 10:41 38.24501 27.21862 39042 ft 470 kts 113°
2026-05-04 10:41 38.21872 27.29489 39044 ft 470 kts 113°
2026-05-04 10:42 38.19243 27.37103 39044 ft 470 kts 113°
2026-05-04 10:42 38.16607 27.44718 39046 ft 471 kts 113°
2026-05-04 10:43 38.13967 27.52331 39045 ft 471 kts 113°
2026-05-04 10:45 38.03340 27.82727 39017 ft 471 kts 116°
2026-05-04 10:45 38.00414 27.90161 39006 ft 471 kts 112°
2026-05-04 10:46 37.97799 27.97772 39013 ft 471 kts 113°
2026-05-04 10:46 37.95149 28.05362 39019 ft 471 kts 113°
2026-05-04 10:47 37.92509 28.12899 39014 ft 471 kts 113°
2026-05-04 10:47 37.89846 28.20478 39018 ft 471 kts 113°
2026-05-04 10:49 37.79138 28.50770 39007 ft 471 kts 114°
2026-05-04 10:50 37.76466 28.58281 38998 ft 470 kts 114°
2026-05-04 10:52 37.65617 28.88386 38972 ft 471 kts 114°
2026-05-04 10:52 37.62886 28.95894 38971 ft 471 kts 114°
2026-05-04 10:54 37.53316 29.22061 34440 ft 469 kts 114°
2026-05-04 10:54 37.51943 29.25796 33618 ft 471 kts 114°
2026-05-04 10:56 37.42665 29.50579 28878 ft 458 kts 114°
2026-05-04 10:56 37.41291 29.54161 28376 ft 451 kts 114°
2026-05-04 10:56 37.39937 29.57686 27894 ft 445 kts 114°
2026-05-04 10:57 37.38598 29.61172 27427 ft 439 kts 114°
2026-05-04 10:57 37.37280 29.64598 26963 ft 433 kts 114°
2026-05-04 10:57 37.35975 29.67987 26505 ft 428 kts 114°
2026-05-04 10:57 37.34417 29.71148 26074 ft 424 kts 130°
2026-05-04 10:58 37.32169 29.73484 25763 ft 418 kts 150°
2026-05-04 10:58 37.29538 29.74934 25476 ft 410 kts 157°
2026-05-04 10:58 37.26941 29.76344 25189 ft 402 kts 156°
2026-05-04 10:58 37.24407 29.77733 24982 ft 393 kts 156°
2026-05-04 10:59 37.21925 29.79091 24808 ft 384 kts 156°
2026-05-04 10:59 37.19499 29.80418 24596 ft 377 kts 156°
2026-05-04 10:59 37.17220 29.81911 24199 ft 374 kts 143°
2026-05-04 10:59 37.15404 29.84196 23834 ft 369 kts 123°
2026-05-04 11:00 37.14280 29.87047 23424 ft 364 kts 104°
2026-05-04 11:01 37.12236 30.08504 20337 ft 345 kts 94°
2026-05-04 11:02 37.12000 30.11492 19781 ft 343 kts 94°
2026-05-04 11:02 37.11766 30.14450 19229 ft 340 kts 94°
2026-05-04 11:05 37.08373 30.51254 15801 ft 283 kts 111°
2026-05-04 11:06 37.07635 30.53538 15279 ft 284 kts 110°
2026-05-04 11:06 37.06905 30.55831 14839 ft 282 kts 110°
2026-05-04 11:06 37.06182 30.58109 14341 ft 280 kts 110°
2026-05-04 11:06 37.05465 30.60368 13882 ft 278 kts 110°
2026-05-04 11:08 36.95780 30.67830 10547 ft 261 kts 184°
2026-05-04 11:10 36.84368 30.66932 8828 ft 259 kts 185°
2026-05-04 11:12 36.72748 30.65969 7080 ft 248 kts 185°
2026-05-04 11:12 36.71039 30.65827 6820 ft 245 kts 185°
2026-05-04 11:12 36.69341 30.65686 6549 ft 244 kts 185°
2026-05-04 11:12 36.67653 30.65547 6304 ft 241 kts 185°
2026-05-04 11:13 36.65986 30.65422 6064 ft 239 kts 181°
2026-05-04 11:13 36.64396 30.65924 5770 ft 239 kts 148°
2026-05-04 11:13 36.63264 30.67396 5504 ft 236 kts 117°
2026-05-04 11:13 36.62705 30.69291 5297 ft 231 kts 107°
2026-05-04 11:14 36.62552 30.69936 5237 ft 229 kts 103°
2026-05-04 11:16 36.69733 30.80746 4007 ft 178 kts 70°
2026-05-04 11:16 36.70459 30.81922 3905 ft 173 kts 28°
2026-05-04 11:16 36.71605 30.82181 3773 ft 170 kts 346°
2026-05-04 11:17 36.72567 30.81415 3610 ft 167 kts 305°
2026-05-04 11:17 36.73131 30.80144 3501 ft 168 kts 296°
2026-05-04 11:19 36.79484 30.77824 1991 ft 151 kts
2026-05-04 11:19 36.80526 30.77966 1786 ft 151 kts
2026-05-04 11:19 36.81569 30.78109 1578 ft 150 kts
2026-05-04 11:19 36.82604 30.78249 1379 ft 149 kts
2026-05-04 11:20 36.83628 30.78384 1172 ft 147 kts
2026-05-04 11:20 36.84640 30.78523 1002 ft 147 kts
2026-05-04 11:20 36.85667 30.78681 790 ft 148 kts
2026-05-04 11:20 36.86686 30.78803 594 ft 144 kts
2026-05-04 11:22 36.90547 30.79552 199 ft 3 kts 35°
2026-05-04 11:22 36.90571 30.79574 194 ft 6 kts 35°
2026-05-04 11:23 36.90628 30.79623 201 ft 13 kts 36°
2026-05-04 11:23 36.90706 30.79698 199 ft 15 kts 37°
2026-05-04 11:24 36.90677 30.79718 194 ft 29 kts 186°
2026-05-04 11:25 36.90464 30.79685 199 ft 32 kts 197°
2026-05-04 11:25 36.90254 30.79622 207 ft 32 kts 186°
2026-05-04 11:25 36.90033 30.79591 198 ft 28 kts 186°
2026-05-04 11:26 36.89820 30.79556 198 ft 11 kts 192°
2026-05-04 11:27 36.89596 30.80254 194 ft 10 kts 86°
2026-05-04 11:28 36.89628 30.80302 196 ft 3 kts 12°
2026-05-04 11:28 36.89658 30.80301 194 ft 6 kts 342°
2026-05-04 11:28 36.89683 30.80276 194 ft 3 kts 319°
2026-05-04 11:28 36.89696 30.80262 194 ft 0 kts 319°
2026-05-04 11:29 36.89697 30.80261 194 ft 0 kts 319°
2026-05-04 11:29 36.89711 30.80257 194 ft 4 kts 352°
2026-05-04 11:31 36.89745 30.80228 194 ft 0 kts 289°